Regional Weather Roundup
Issued by NWS

Home | Current Version | Previous Version | Text Only | Print | Product List | Glossary On
Versions: 1 2 3 4 5 6 7 8 9 10 11 12 13 14 15 16 17 18 19 20 21 22 23 24 25 26 27 28 29 30 31 32 33 34 35 36 37 38 39 40 41 42 43 44 45 46 47 48 49 50
000
ASUS44 KFWD 292115
RWRTX
NORTH TEXAS HOURLY WEATHER ROUNDUP
NATIONAL WEATHER SERVICE FORT WORTH TX
400 PM CDT SAT APR 29 2017

NOTE: "FAIR" INDICATES FEW OR NO CLOUDS BELOW 12,000 FEET WITH NO
SIGNIFICANT WEATHER AND/OR OBSTRUCTIONS TO VISIBILITY.

TXZ118-119-292200-
DALLAS/FORT WORTH METROPLEX

CITY           SKY/WX    TMP DP  RH WIND       PRES   REMARKS
DFW AIRPORT    PTSUNNY   82  64  54 NW17      29.52R
DALLAS LOVE    PTSUNNY   90  70  51 S18       29.52F HX  95
FTW MEACHAM    MOSUNNY   76  61  59 NW16      29.57R
DAL-EXECUTIVE  CLOUDY    88  72  58 S8G21     29.52F HX  94
FTW-ALLIANCE   PTSUNNY   73  59  61 NW18      29.57R
FTW-NAS-JRB    PTSUNNY   75  60  59 NW16      29.58R
FTW-SPINKS     PTSUNNY   79  63  57 NW17G25   29.57R
ARLINGTON      CLOUDY    80  64  58 NW17      29.54R
GRAND PRAIRIE  SUNNY     88  66  48 S13G22    29.54F HX  90
ADDISON        PTSUNNY   88  70  55 S13G24    29.52F HX  92
MESQUITE       PTSUNNY   88  73  62 S14G32    29.53F FOG     HX  96
LANCASTER      PTSUNNY   86  72  62 S16G24    29.54F HX  92
$$

TXZ091>094-102>105-117-120-121-131>134-292200-
NORTH CENTRAL TEXAS

CITY           SKY/WX    TMP DP  RH WIND       PRES   REMARKS
SHRMAN/DENISON MOSUNNY   79  68  69 W16       29.55S
GAINESVILLE    CLOUDY    70  59  68 N14G20    29.61R
BOWIE          CLOUDY    56  52  85 NW15      29.65S
BRIDGEPORT     CLOUDY    57  51  81 NW12G18   29.67R
DECATUR        PTSUNNY   61  53  74 W14G21    29.63R
DENTON         MOSUNNY   74  62  66 W15       29.56R
MCKINNEY       LGT RAIN  86  74  67 S16G29    29.52F HX  94
BONHAM         PTSUNNY   86  72  62 S17G35    29.54F HX  92
GREENVILLE     MOSUNNY   91  73  55 S15       29.55F HX 100
ROCKWALL       MOSUNNY   89  72  58 S22G36    29.54F HX  96
TERRELL        MOSUNNY   89  72  56 S18G26    29.54F HX  96
WAXAHACHIE     CLOUDY    85  73  65 S13G22    29.54F HX  92
CLEBURNE       MOSUNNY   73  63  68 NW18G24   29.59R
GRANBURY       MOSUNNY   68  54  62 NW20G28   29.63R
$$

TXZ083>090-098>101-113>116-127>130-139>142-154-155-292200-
WESTERN NORTH TEXAS

CITY           SKY/WX    TMP DP  RH WIND       PRES   REMARKS
WICHITA FALLS  CLOUDY    52  50  93 NW22      29.67R
VERNON         CLOUDY    52  44  74 NW21G28   29.75R
ABILENE        CLOUDY    53  46  77 NW23      29.75R
ABILENE-DYESS  CLOUDY    55  45  69 NW17G25   29.76R
GRAHAM         CLOUDY    53  53 100 W17G23    29.68R
BRECKENRIDGE   CLOUDY    55  48  77 NW17G24   29.72R
CISCO          PTSUNNY   54  50  87 NW16G26   29.71R
RANGER         CLOUDY    54  51  88 NW12G18   29.68S
MINERAL WELLS  CLOUDY    59  50  72 NW21G26   29.64R
STEPHENVILLE   CLOUDY    59  50  72 NW18G24   29.67R
COMANCHE       CLOUDY    58  51  78 NW20G28   29.68R
BROWNWOOD      CLOUDY    59  50  72 NW18G24   29.71R
COLEMAN        CLOUDY    59  47  65 NW17G26   29.74R
$$

TXZ143>147-156>162-174-175-292200-
CENTRAL TEXAS

CITY           SKY/WX    TMP DP  RH WIND       PRES   REMARKS
WACO           MOSUNNY   87  72  60 S16       29.52F HX  93
WACO-TSTC      MOSUNNY   90  73  58 S12G20    29.53F HX  98
WACO-MCGREGOR  CLOUDY    89  72  56 S16G23    29.53F HX  96
HILLSBORO      PTSUNNY   88  73  61 S20       29.53F HX  96
CORSICANA      CLOUDY    90  76  63 S8        29.53F THUNDER HX 101
MEXIA          MOSUNNY   89  75  61 S22G29    29.52F HX  99
HEARNE         MOSUNNY   89  74  61 S20G28    29.55F HX  97
CAMERON        CLOUDY    90  73  56 S24G35    29.53F HX  98
TEMPLE         PTSUNNY   89  74  60 S22       29.52F HX  98
KILLEEN        CLOUDY    87  69  54 S14       29.54S HX  91
KILLEEN-SKYLRK CLOUDY    89  71  55 S17       29.54F HX  95
FORT HOOD      PTSUNNY   88  69  53 S14       29.51F HX  92
GATESVILLE     CLOUDY    86  66  51 NW15G23   29.58R
HAMILTON       CLOUDY    64  53  66 NW24G30   29.63R
LAMPASAS       PTSUNNY   76  63  64 NW12G20   29.58R
$$

TXZ095>097-106>112-122>126-135>138-148>153-164>167-292200-
EAST TEXAS

CITY           SKY/WX    TMP DP  RH WIND       PRES   REMARKS
PARIS          CLOUDY    82  73  74 S26G33    29.58F
SULPHUR SPRNGS CLOUDY    81  74  81 SE12G24   29.60F
MOUNT PLEASANT CLOUDY    78  70  76 SE15G28   29.64F
GILMER         CLOUDY    75  70  83 SE15G29   29.63F
MINEOLA        CLOUDY    81  75  83 SE15G21   29.59F
TYLER          LGT RAIN  80  77  90 SE17G26   29.58F
LONGVIEW       CLOUDY    74  69  85 SE20G26   29.65F
MARSHALL       CLOUDY    73  63  71 SE7       29.69S
ATHENS         CLOUDY    81  75  83 S9        29.55F
PALESTINE      MOSUNNY   84  76  76 SE13G22   29.58F HAZE    HX  93
JACKSONVILLE   CLOUDY    79  76  90 SE12G20   29.65F
HENDERSON      CLOUDY    73  71  95 SE12G18   29.66F
CENTER         CLOUDY    76  69  79 SE15G22   29.70F
NACOGDOCHES    CLOUDY    73  72  94 SE14G20   29.63F
LUFKIN         LGT RAIN  77  75  93 SE15G23   29.63F FOG
$$

SUPPLEMENTAL OBSERVATIONS (CENTRAL)

CITY           SKY/WX    TMP DP  RH WIND       PRES   REMARKS
DENISON DAM      N/A     73  64  73 W18         N/A
CADDO GRASSLND   N/A     84  72  65 S14G28      N/A
PAT MAYSE LAKE   N/A     82  77  83 SE25        N/A  HX  91
GREENVILLE       N/A     84  73  70 SE14G26     N/A  HX  91
CEDAR HILL       N/A     90  70  51 S9G24       N/A  HX  95
ATHENS           N/A     81  73  78 SE20        N/A
LAKE LIMESTONE   N/A     88  73  62 S14G25      N/A  HX  96
MCGREGOR         N/A     90  70  51 S13G25      N/A  HX  95
TEMPLE           N/A     88  72  58 S17G28      N/A  HX  94
$$

SUPPLEMENTAL OBSERVATIONS (WEST)

CITY           SKY/WX    TMP DP  RH WIND       PRES   REMARKS
MILLERS CREEK    N/A     54  46  76 NW20        N/A
POSSUM KINGDOM   N/A     54  48  82 NW15G23     N/A
LBJ GRASSLAND    N/A     61  52  72 W12G20      N/A
GRANBURY         N/A     64  52  63 NW21G26     N/A
COMANCHE         N/A     57  50  77 NW20G26     N/A
HAMBY            N/A     54  45  71 NW14        N/A
IVIE RESERVOIR   N/A     64  48  55 NW18G26     N/A
COLORADO BEND    N/A     72  57  60 N12G22      N/A
$$

SUPPLEMENTAL OBSERVATIONS (EAST)

CITY           SKY/WX    TMP DP  RH WIND       PRES   REMARKS
CLARKSVILLE      N/A     81  73  78 S18G31      N/A
TEXARKANA        N/A     81  70  69 S9G18       N/A
LINDEN           N/A     75  64  69 S5G20       N/A
CADDO LAKE       N/A     75  64  69 SE6         N/A
GILMER           N/A     75  68  78 S15G26      N/A
HENDERSON        N/A     73  68  83 SE10G18     N/A
LUFKIN           N/A     81  75  83 MISG        N/A
N SABINE NF      N/A     72  68  88 MISG        N/A
S SABINE NF      N/A     70  66  88 SE2         N/A
$$

SUPPLEMENTAL OBSERVATIONS ARE A COLLECTION OF AUTOMATED INSTRUMENTS
THAT ARE MAINTAINED BY A VARIETY OF FEDERAL AND STATE AGENCIES.
CERTAIN ELEMENTS...SUCH AS HUMIDITY VALUES AND SUSTAINED WIND
SPEEDS...MAY BE APPROXIMATED.





USA.gov is the U.S. government's official web portal to all federal, state and local government web resources and services.